Home   Weather   Fevik   Past weeks

Flag for Norway Past Weather in Fevik, Norway — Yesterday and Last 2 Weeks

Now
45 °F

Quite cool.


Feels Like: 42 °F
Forecast: 31 / 37 °F
Wind: 5 mph from Southwest

Location: Torungen Fyr

Current Time: Dec 11, 2016 at 3:21:45 am

Latest Report: Dec 11, 2016 at 1:00 am


Visibility: N/A

Pressure: 29.75 "Hg

Humidity: 86%

Dew Point: 40 °F

Location of FevikLocation

Past Weather in Fevik — Graph

°F

Fevik Temperature Yesterday

Maximum temperature yesterday: 49 °F (at 1:00 pm)
Minimum temperature yesterday: 44 °F (at 5:00 am)
Average temperature yesterday: 46 °F

High & Low Weather Summary for the Past Weeks

 TemperatureHumidityPressure
High54 °F (Dec 8, 1:00 pm)98% (Dec 7, 1:00 pm)30.51 "Hg (Dec 7, 1:00 pm)
Low32 °F (Nov 29, 6:00 am)41% (Nov 27, 3:00 pm)29.62 "Hg (Dec 1, 3:00 pm)
Average42 °F75%30.03 "Hg
* Reported Nov 26 1:00 am — Dec 11 1:00 am, Fevik, Weather by CustomWeather, © 2016

Note: Actual official high and low records may vary slightly from our data, if they occured in-between our weather recording intervals... More about our weather records

Advertising

Fevik Weather History for the Previous 24 Hours

Scroll right to see more
 ConditionsComfort  
Time TempWeatherWind HumidityBarometerVisibility
1:00 am
Sun, Dec 11
45 °FQuite cool.5 mph86%29.75 "HgN/A
12:00 am44 °FQuite cool.5 mph84%29.77 "HgN/A
11:00 pm
Sat, Dec 10
44 °FQuite cool.7 mph86%29.77 "HgN/A
10:00 pm45 °FCool.7 mph87%29.79 "HgN/A
9:00 pm45 °FQuite cool.8 mph87%29.81 "HgN/A
8:00 pm46 °FCool.9 mph87%29.80 "HgN/A
7:00 pm46 °FCool.7 mph85%29.81 "HgN/A
6:00 pm46 °FCool.7 mph85%29.80 "HgN/A
5:00 pm47 °FCool.6 mph87%29.80 "HgN/A
4:00 pm47 °FCool.3 mph81%29.79 "HgN/A
3:00 pm49 °FCool.6 mph79%29.77 "HgN/A
2:00 pm48 °FCool.5 mph91%29.76 "HgN/A
1:00 pm49 °FCool.9 mph86%29.76 "HgN/A
12:00 pm48 °FCool.7 mph92%29.76 "HgN/A
11:00 am46 °FCool.7 mph97%29.76 "HgN/A
10:00 am46 °FCool.8 mph97%29.76 "HgN/A
9:00 am46 °FCool.6 mph96%29.76 "HgN/A
8:00 am47 °FCool.8 mph96%29.75 "HgN/A
7:00 am46 °FCool.5 mph94%29.75 "HgN/A
6:00 am46 °FCool.6 mph95%29.76 "HgN/A
5:00 am44 °FQuite cool.3 mph96%29.77 "HgN/A
4:00 am45 °FCool.2 mph97%29.77 "HgN/A
3:00 am45 °FQuite cool.3 mph97%29.78 "HgN/A
Weather by CustomWeather, © 2016

See weather overviewHow to use our weather pages